Date String (YYYY-MM-DD hh:mm:ss) UTC,Instrument flags,Ambient pressure (hPa),Sample flow (lpm),Bypass flow (lpm),Sample temperature (°C),Ambient temperature (°C),ASC tube jacket temperature (°C),LED temperature (°C),Box temperature (°C),Sample RH (%),Span deviation,Mass concentration (μg/m³),Mass concentration (μg/m³),Mass concentration (μg/m³)
DateTimeUTC,F1_M11,P_M11,Q1_M11,Q2_M11,T1_M11,T2_M11,T3_M11,T4_M11,T5_M11,U1_M11,ZSPAN_M11,X2_M11,X0_M11,X1_M11
2021-10-20 19:00:00,,0830.1,5.00,0.00,27.0,26.4,00.0,35.8,29.0,12.0,0000.0,0002.47,0009.54,0001.90
2021-10-20 19:01:00,,0830.1,5.00,0.00,27.0,26.4,00.0,35.9,29.0,11.9,0000.0,0002.45,0009.08,0001.92
2021-10-20 19:02:00,,0830.1,5.01,0.00,27.0,26.4,00.0,35.9,29.0,11.9,0000.0,0002.46,0008.44,0001.93
2021-10-20 19:03:00,,0830.1,5.00,0.00,27.0,26.4,00.0,35.9,29.0,11.6,0000.0,0002.43,0007.87,0001.94
2021-10-20 19:04:00,,0830.2,5.01,0.00,27.1,26.4,00.0,35.9,29.0,11.7,0000.0,0002.42,0007.52,0001.93
2021-10-20 19:05:00,,0830.1,5.00,0.00,27.1,26.4,00.0,35.9,29.0,11.6,0000.0,0002.46,0006.88,0001.95
2021-10-20 19:06:00,,0830.2,5.00,0.00,27.1,26.4,00.0,36.0,29.0,11.6,0000.0,0002.46,0006.10,0001.95
2021-10-20 19:07:00,,0830.1,5.00,0.00,27.1,26.4,00.0,36.0,29.0,11.6,0000.0,0002.51,0006.15,0001.97
2021-10-20 19:08:00,,0830.1,5.00,0.00,27.1,26.4,00.0,36.0,29.1,11.6,0000.0,0002.54,0004.64,0002.00
2021-10-20 19:09:00,,0830.1,5.00,0.00,27.1,26.4,00.0,36.0,29.1,11.5,0000.0,0002.54,0005.70,0002.04
2021-10-20 19:10:00,,0830.1,5.01,0.00,27.1,26.5,00.0,36.0,29.1,11.6,0000.0,0002.62,0006.92,0002.05
2021-10-20 19:11:00,,0830.1,5.00,0.00,27.2,26.5,00.0,36.1,29.1,11.6,0000.0,0002.65,0007.30,0002.06
2021-10-20 19:12:00,,0830.1,4.99,0.00,27.2,26.5,00.0,36.1,29.1,11.7,0000.0,0002.70,0007.45,0002.09
2021-10-20 19:13:00,,0830.1,5.00,0.00,27.2,26.5,00.0,36.1,29.1,11.7,0000.0,0002.77,0007.53,0002.10
2021-10-20 19:14:00,,0830.1,5.00,0.00,27.2,26.5,00.0,36.1,29.1,11.7,0000.0,0002.81,0007.59,0002.12
2021-10-20 19:15:00,,0830.1,5.00,0.00,27.2,26.6,00.0,36.1,29.2,11.6,0000.0,0002.91,0007.65,0002.16
2021-10-20 19:16:00,,0830.1,5.00,0.00,27.3,26.6,00.0,36.2,29.2,11.6,0000.0,0002.91,0007.63,0002.17
2021-10-20 19:17:00,,0830.1,4.99,0.00,27.3,26.6,00.0,36.2,29.2,11.6,0000.0,0002.95,0007.87,0002.18
2021-10-20 19:18:00,,0830.1,5.01,0.00,27.3,26.7,00.0,36.2,29.2,11.6,0000.0,0002.96,0007.89,0002.20
2021-10-20 19:19:00,,0830.1,5.00,0.00,27.3,26.8,00.0,36.2,29.3,11.8,0000.0,0002.97,0008.32,0002.22
2021-10-20 19:20:00,,0830.1,4.99,0.00,27.4,26.8,00.0,36.3,29.3,11.7,0000.0,0003.05,0007.91,0002.26
2021-10-20 19:21:00,,0830.0,5.00,0.00,27.4,26.8,00.0,36.3,29.4,11.7,0000.0,0003.11,0007.27,0002.33
2021-10-20 19:22:00,,0829.9,5.01,0.00,27.4,26.9,00.0,36.3,29.4,11.7,0000.0,0003.18,0007.48,0002.41
2021-10-20 19:23:00,,0829.9,4.99,0.00,27.5,26.9,00.0,36.3,29.4,11.7,0000.0,0003.21,0007.47,0002.43
2021-10-20 19:24:00,,0829.9,5.01,0.00,27.5,27.0,00.0,36.4,29.5,11.8,0000.0,0003.19,0007.49,0002.43
2021-10-20 19:25:00,,0829.8,4.99,0.00,27.5,27.0,00.0,36.4,29.5,11.8,0000.0,0003.18,0008.14,0002.41
2021-10-20 19:26:00,,0829.9,5.01,0.00,27.6,27.0,00.0,36.4,29.5,11.7,0000.0,0003.15,0008.33,0002.40
2021-10-20 19:27:00,,0829.9,5.00,0.00,27.6,27.0,00.0,36.4,29.6,11.7,0000.0,0003.15,0008.76,0002.39
2021-10-20 19:28:00,,0829.8,4.99,0.00,27.6,27.0,00.0,36.5,29.6,11.7,0000.0,0003.14,0008.51,0002.38
2021-10-20 19:29:00,,0829.9,4.99,0.00,27.7,27.1,00.0,36.5,29.6,11.7,0000.0,0003.13,0008.42,0002.38
2021-10-20 19:30:00,,0829.8,5.01,0.00,27.7,27.1,00.0,36.5,29.6,11.8,0000.0,0003.11,0008.09,0002.36
2021-10-20 19:31:00,,0829.8,5.00,0.00,27.7,27.2,00.0,36.6,29.7,11.8,0000.0,0003.04,0007.50,0002.29
2021-10-20 19:32:00,,0829.8,5.00,0.00,27.7,27.2,00.0,36.6,29.7,11.7,0000.0,0002.95,0007.52,0002.21
2021-10-20 19:33:00,,0829.9,5.00,0.00,27.8,27.2,00.0,36.6,29.7,11.6,0000.0,0002.89,0007.37,0002.14
2021-10-20 19:34:00,,0829.9,5.00,0.00,27.8,27.2,00.0,36.7,29.7,11.6,0000.0,0002.85,0007.55,0002.13
2021-10-20 19:35:00,,0829.8,5.01,0.00,27.8,27.2,00.0,36.7,29.7,11.6,0000.0,0002.85,0007.86,0002.14
2021-10-20 19:36:00,,0829.8,4.99,0.00,27.8,27.2,00.0,36.7,29.7,11.7,0000.0,0002.90,0007.61,0002.17
2021-10-20 19:37:00,,0829.8,5.02,0.00,27.8,27.2,00.0,36.7,29.7,11.6,0000.0,0002.93,0007.51,0002.17
2021-10-20 19:38:00,,0829.7,5.00,0.00,27.9,27.2,00.0,36.7,29.8,11.5,0000.0,0002.95,0007.42,0002.18
2021-10-20 19:39:00,,0829.7,4.99,0.00,27.9,27.3,00.0,36.8,29.8,11.4,0000.0,0002.93,0007.22,0002.20
2021-10-20 19:40:00,,0829.6,5.00,0.00,27.9,27.3,00.0,36.8,29.8,11.4,0000.0,0002.91,0007.31,0002.22
2021-10-20 19:41:00,,0829.7,4.99,0.00,27.9,27.3,00.0,36.8,29.8,11.6,0000.0,0002.92,0007.52,0002.24
2021-10-20 19:42:00,,0829.7,5.00,0.00,27.9,27.3,00.0,36.8,29.8,11.6,0000.0,0002.94,0007.56,0002.24
2021-10-20 19:43:00,,0829.7,5.01,0.00,28.0,27.3,00.0,36.8,29.8,11.6,0000.0,0002.91,0007.50,0002.25
2021-10-20 19:44:00,,0829.7,4.99,0.00,28.0,27.4,00.0,36.9,29.9,11.6,0000.0,0002.90,0007.41,0002.26
2021-10-20 19:45:00,,0829.7,5.01,0.00,28.0,27.4,00.0,36.9,29.9,11.6,0000.0,0002.87,0007.21,0002.26
2021-10-20 19:46:00,,0829.7,5.01,0.00,28.0,27.4,00.0,36.9,29.9,11.6,0000.0,0002.91,0006.94,0002.26
2021-10-20 19:47:00,,0829.7,4.99,0.00,28.0,27.4,00.0,36.9,29.9,11.5,0000.0,0002.92,0006.70,0002.27
2021-10-20 19:48:00,,0829.8,5.01,0.00,28.1,27.5,00.0,36.9,30.0,11.3,0000.0,0002.95,0006.90,0002.30
2021-10-20 19:49:00,,0829.9,5.00,0.00,28.1,27.5,00.0,37.0,30.0,11.4,0000.0,0003.00,0006.93,0002.33
2021-10-20 19:50:00,,0829.7,5.01,0.00,28.1,27.5,00.0,37.0,30.0,11.4,0000.0,0003.03,0007.54,0002.32
2021-10-20 19:51:00,,0829.7,4.99,0.00,28.2,27.6,00.0,37.0,30.1,11.6,0000.0,0003.02,0008.11,0002.29
2021-10-20 19:52:00,,0829.7,5.00,0.00,28.2,27.6,00.0,37.0,30.1,11.4,0000.0,0003.02,0007.95,0002.28
2021-10-20 19:53:00,,0829.8,5.00,0.00,28.2,27.7,00.0,37.1,30.2,11.4,0000.0,0003.06,0008.02,0002.30
2021-10-20 19:54:00,,0829.7,5.00,0.00,28.2,27.7,00.0,37.1,30.2,11.4,0000.0,0003.04,0007.97,0002.31
2021-10-20 19:55:00,,0829.6,5.00,0.00,28.3,27.6,00.0,37.1,30.2,11.5,0000.0,0003.05,0008.56,0002.30
2021-10-20 19:56:00,,0829.6,5.00,0.00,28.3,27.7,00.0,37.1,30.2,11.5,0000.0,0003.05,0008.79,0002.27
2021-10-20 19:57:00,,0829.7,5.00,0.00,28.3,27.7,00.0,37.2,30.2,11.5,0000.0,0003.09,0009.53,0002.23
2021-10-20 19:58:00,,0829.7,5.01,0.00,28.3,27.7,00.0,37.2,30.2,11.4,0000.0,0003.01,0009.18,0002.18
2021-10-20 19:59:00,,0829.7,5.01,0.00,28.4,27.7,00.0,37.2,30.2,11.4,0000.0,0002.95,0009.01,0002.14
